When you browse on this site, cookies collect data to enhance your experience and personalize the content and advertising you see.
Visit our Privacy Policy to learn more. By continuing to use the site, you agree to this use of cookies and data.
  • In Hungary
  • List of Countries
  • For 7 days
  • Water Temperature
  • Weather Map
  • News
  • Weather Widgets
  • user-avatar
    Login

    Hourly Weather Kandi

    Today, 21 November, Thursday

    Time Temperature Precipitation Wind Pressure Humidity
    00:00 +26°C° 0 mm 0 mps 736 mmHg 27%
    01:00 +26°C° 0 mm 0 mps 735 mmHg 27%
    02:00 +25°C° 0 mm 0 mps 735 mmHg 27%
    03:00 +27°C° 0 mm 1 mps 735 mmHg 27%
    04:00 +27°C° 0 mm 1 mps 735 mmHg 28%
    05:00 +26°C° 0 mm 1 mps 735 mmHg 28%
    06:00 +26°C° 0 mm 1 mps 736 mmHg 28%
    07:00 +29°C° 0 mm 1 mps 736 mmHg 25%
    08:00 +32°C° 0 mm 1 mps 737 mmHg 21%
    09:00 +35°C° 0 mm 1 mps 737 mmHg 18%
    10:00 +38°C° 0 mm 2 mps 737 mmHg 16%
    11:00 +40°C° 0 mm 2 mps 736 mmHg 14%
    12:00 +43°C° 0 mm 3 mps 736 mmHg 12%
    13:00 +42°C° 0 mm 3 mps 735 mmHg 12%
    14:00 +41°C° 0 mm 2 mps 734 mmHg 12%
    15:00 +41°C° 0 mm 2 mps 734 mmHg 12%
    16:00 +39°C° 0 mm 2 mps 734 mmHg 15%
    17:00 +35°C° 0 mm 1 mps 734 mmHg 17%
    18:00 +33°C° 0 mm 1 mps 734 mmHg 20%
    19:00 +32°C° 0 mm 1 mps 734 mmHg 21%
    20:00 +31°C° 0 mm 1 mps 735 mmHg 22%
    21:00 +30°C° 0 mm 1 mps 735 mmHg 23%
    22:00 +30°C° 0 mm 1 mps 735 mmHg 24%
    23:00 +29°C° 0 mm 1 mps 735 mmHg 24%

    Tomorrow, 22 November, Friday

    Time Temperature Precipitation Wind Pressure Humidity
    00:00 +27°C° 0 mm 0 mps 735 mmHg 25%
    01:00 +28°C° 0 mm 1 mps 735 mmHg 26%
    02:00 +28°C° 0 mm 1 mps 735 mmHg 27%
    03:00 +28°C° 0 mm 1 mps 735 mmHg 27%
    04:00 +27°C° 0 mm 1 mps 735 mmHg 30%
    05:00 +26°C° 0 mm 1 mps 735 mmHg 32%
    06:00 +23°C° 0 mm 0 mps 736 mmHg 35%
    07:00 +28°C° 0 mm 1 mps 736 mmHg 31%
    08:00 +31°C° 0 mm 1 mps 737 mmHg 27%
    09:00 +34°C° 0 mm 1 mps 737 mmHg 23%
    10:00 +36°C° 0 mm 1 mps 737 mmHg 20%
    11:00 +39°C° 0 mm 1 mps 736 mmHg 17%
    12:00 +42°C° 0 mm 1 mps 736 mmHg 14%
    13:00 +42°C° 0 mm 1 mps 735 mmHg 14%
    14:00 +41°C° 0 mm 1 mps 735 mmHg 14%
    15:00 +41°C° 0 mm 1 mps 734 mmHg 13%
    16:00 +39°C° 0 mm 1 mps 734 mmHg 16%
    17:00 +35°C° 0 mm 1 mps 734 mmHg 18%
    18:00 +33°C° 0 mm 1 mps 734 mmHg 20%
    19:00 +32°C° 0 mm 1 mps 735 mmHg 21%
    20:00 +31°C° 0 mm 1 mps 736 mmHg 22%
    21:00 +30°C° 0 mm 1 mps 736 mmHg 24%
    22:00 +29°C° 0 mm 1 mps 736 mmHg 25%
    23:00 +29°C° 0 mm 1 mps 736 mmHg 27%

    Day after tomorrow, 23 November, Saturday

    Time Temperature Precipitation Wind Pressure Humidity
    00:00 +28°C° 0 mm 1 mps 736 mmHg 28%
    01:00 +28°C° 0 mm 1 mps 736 mmHg 34%
    02:00 +27°C° 0 mm 2 mps 735 mmHg 40%
    03:00 +27°C° 0 mm 2 mps 735 mmHg 46%
    04:00 +26°C° 0 mm 2 mps 735 mmHg 58%
    05:00 +26°C° 0 mm 2 mps 736 mmHg 69%
    06:00 +25°C° 0 mm 2 mps 736 mmHg 80%
    07:00 +28°C° 0 mm 2 mps 736 mmHg 70%
    08:00 +30°C° 0 mm 2 mps 737 mmHg 61%
    09:00 +34°C° 0 mm 2 mps 737 mmHg 51%
    10:00 +37°C° 0 mm 2 mps 737 mmHg 40%
    11:00 +41°C° 0 mm 1 mps 736 mmHg 30%
    12:00 +41°C° 0 mm 0 mps 736 mmHg 19%
    13:00 +43°C° 0 mm 1 mps 735 mmHg 18%
    14:00 +43°C° 0 mm 1 mps 734 mmHg 18%
    15:00 +42°C° 0 mm 1 mps 734 mmHg 17%
    16:00 +39°C° 0 mm 1 mps 734 mmHg 20%
    17:00 +36°C° 0 mm 1 mps 734 mmHg 23%
    18:00 +34°C° 0 mm 1 mps 734 mmHg 25%
    19:00 +33°C° 0 mm 1 mps 735 mmHg 27%
    20:00 +32°C° 0 mm 1 mps 735 mmHg 28%
    21:00 +31°C° 0 mm 1 mps 736 mmHg 30%
    22:00 +30°C° 0 mm 1 mps 736 mmHg 32%
    23:00 +30°C° 0 mm 1 mps 736 mmHg 34%

    24 November, Sunday

    Time Temperature Precipitation Wind Pressure Humidity
    00:00 +29°C° 0 mm 1 mps 735 mmHg 36%
    01:00 +29°C° 0 mm 1 mps 735 mmHg 38%
    02:00 +28°C° 0 mm 1 mps 735 mmHg 40%
    03:00 +28°C° 0 mm 1 mps 735 mmHg 42%
    04:00 +27°C° 0 mm 1 mps 735 mmHg 47%
    05:00 +27°C° 0 mm 1 mps 735 mmHg 52%
    06:00 +26°C° 0 mm 1 mps 735 mmHg 57%
    07:00 +29°C° 0 mm 1 mps 736 mmHg 52%
    08:00 +32°C° 0 mm 2 mps 736 mmHg 47%
    09:00 +36°C° 0 mm 2 mps 737 mmHg 42%
    10:00 +38°C° 0 mm 2 mps 736 mmHg 34%
    11:00 +40°C° 0 mm 1 mps 736 mmHg 27%
    12:00 +43°C° 0 mm 1 mps 735 mmHg 20%
    13:00 +42°C° 0 mm 1 mps 735 mmHg 19%
    14:00 +42°C° 0 mm 1 mps 734 mmHg 18%
    15:00 +42°C° 0 mm 2 mps 733 mmHg 17%
    16:00 +40°C° 0 mm 2 mps 733 mmHg 19%
    17:00 +37°C° 0 mm 1 mps 734 mmHg 21%
    18:00 +35°C° 0 mm 1 mps 734 mmHg 23%
    19:00 +33°C° 0 mm 1 mps 734 mmHg 25%
    20:00 +32°C° 0 mm 1 mps 735 mmHg 26%
    21:00 +31°C° 0 mm 1 mps 735 mmHg 27%
    22:00 +30°C° 0 mm 1 mps 735 mmHg 29%
    23:00 +29°C° 0 mm 1 mps 735 mmHg 30%

    25 November, Monday

    Time Temperature Precipitation Wind Pressure Humidity
    00:00 +27°C° 0 mm 0 mps 735 mmHg 31%
    01:00 +28°C° 0 mm 1 mps 735 mmHg 33%
    02:00 +28°C° 0 mm 1 mps 735 mmHg 35%
    03:00 +27°C° 0 mm 1 mps 734 mmHg 37%
    04:00 +27°C° 0 mm 1 mps 735 mmHg 44%
    05:00 +26°C° 0 mm 1 mps 735 mmHg 51%
    06:00 +26°C° 0 mm 1 mps 735 mmHg 58%
    07:00 +29°C° 0 mm 1 mps 736 mmHg 52%
    08:00 +32°C° 0 mm 1 mps 736 mmHg 47%
    09:00 +35°C° 0 mm 1 mps 737 mmHg 41%
    10:00 +37°C° 0 mm 1 mps 736 mmHg 33%
    11:00 +40°C° 0 mm 1 mps 736 mmHg 25%
    12:00 +42°C° 0 mm 2 mps 735 mmHg 16%
    13:00 +42°C° 0 mm 2 mps 735 mmHg 15%
    14:00 +42°C° 0 mm 2 mps 734 mmHg 13%
    15:00 +43°C° 0 mm 3 mps 733 mmHg 12%
    16:00 +39°C° 0 mm 2 mps 733 mmHg 13%
    17:00 +37°C° 0 mm 2 mps 734 mmHg 15%
    18:00 +34°C° 0 mm 2 mps 734 mmHg 17%
    19:00 +32°C° 0 mm 2 mps 734 mmHg 17%
    20:00 +31°C° 0 mm 2 mps 735 mmHg 18%
    21:00 +30°C° 0 mm 2 mps 735 mmHg 19%
    22:00 +29°C° 0 mm 1 mps 735 mmHg 20%
    23:00 +29°C° 0 mm 1 mps 735 mmHg 20%

    26 November, Tuesday

    Time Temperature Precipitation Wind Pressure Humidity
    00:00 +26°C° 0 mm 0 mps 735 mmHg 21%
    01:00 +28°C° 0 mm 1 mps 735 mmHg 23%
    02:00 +27°C° 0 mm 1 mps 734 mmHg 24%
    03:00 +27°C° 0 mm 2 mps 734 mmHg 25%
    04:00 +26°C° 0 mm 1 mps 734 mmHg 34%
    05:00 +25°C° 0 mm 1 mps 735 mmHg 42%
    06:00 +24°C° 0 mm 1 mps 735 mmHg 51%
    07:00 +27°C° 0 mm 1 mps 736 mmHg 48%
    08:00 +30°C° 0 mm 1 mps 736 mmHg 45%
    09:00 +34°C° 0 mm 2 mps 737 mmHg 42%
    10:00 +36°C° 0 mm 1 mps 736 mmHg 33%
    11:00 +40°C° 0 mm 1 mps 736 mmHg 24%
    12:00 +43°C° 0 mm 1 mps 735 mmHg 16%
    13:00 +42°C° 0 mm 1 mps 735 mmHg 15%
    14:00 +42°C° 0 mm 2 mps 734 mmHg 13%
    15:00 +41°C° 0 mm 2 mps 733 mmHg 12%
    16:00 +39°C° 0 mm 2 mps 733 mmHg 14%
    17:00 +36°C° 0 mm 2 mps 733 mmHg 16%
    18:00 +33°C° 0 mm 1 mps 734 mmHg 18%
    19:00 +32°C° 0 mm 1 mps 734 mmHg 19%
    20:00 +31°C° 0 mm 2 mps 735 mmHg 19%
    21:00 +30°C° 0 mm 2 mps 735 mmHg 20%
    22:00 +29°C° 0 mm 1 mps 735 mmHg 21%
    23:00 +28°C° 0 mm 1 mps 735 mmHg 22%
    Show more